Wetbulb
75.31 75.20 75.22 75.25 75.56 75.25 74.50 76.00 77.52 78.28 78.75 78.02 78.12 76.71 77.32 77.01 77.50 77.49 76.82 76.06 76.47 76.71 76.99 76.69 76.09 76.81 75.85 74.58 74.99 74.43 73.55 72.07 68.56 71.82 72.17 73.62 72.30 71.41 69.77 68.60 68.77 67.05 65.31
74.76 76.00 75.40 76.25 76.31 75.35 74.42 74.45 76.08 76.56 77.35 77.09 77.03 76.87 77.29 77.23 77.59 77.20 75.80 75.10 76.22 75.38 76.01 75.31 76.58 75.27 76.70 76.58 75.85 74.95 75.25 74.76 72.14 67.07 69.87 71.77 72.43 72.16 70.54 70.28 68.56 66.85 64.38
75.18 74.90 75.26 75.44 75.53 75.39 75.64 75.81 75.78 76.52 76.23 76.38 76.66 75.71 76.63 77.03 76.54 77.07 76.28 75.98 76.03 76.19 75.54 76.01 75.24 75.96 75.96 76.18 76.04 74.49 74.99 74.39 73.21 69.23 70.62 73.79 73.67 72.37 69.78 68.32 66.17 64.71 63.87
75.14 74.46 74.61 75.64 75.53 75.38 75.97 77.53 76.24 76.62 77.01 76.69 76.37 76.61 75.75 75.79 77.14 76.91 76.44 76.08 75.79 76.08 76.20 75.59 75.09 75.36 75.51 76.34 75.37 74.30 74.11 72.71 73.37 72.34 71.66 71.62 72.07 71.56 68.66 65.29 64.18 64.22 63.41
77.86 75.84 75.62 76.65 77.32 76.99 76.99 77.22 77.60 77.62 76.65 77.42 77.15 76.77 76.69 76.10 75.16 75.60 75.59 75.72 75.74 75.50 76.44 76.13 75.79 75.66 75.30 75.85 75.48 74.89 73.53 74.09 73.50 71.55 71.32 71.87 71.24 68.03 66.36 66.17 64.02 63.89 63.72
76.68 77.65 78.83 79.45 78.11 77.38 77.85 77.83 78.36 78.05 77.69 78.06 77.23 76.47 76.25 75.97 70.62 68.82 72.88 74.87 74.86 75.07 74.42 75.77 76.20 74.14 73.72 71.77 72.72 71.87 73.30 73.85 73.01 71.53 70.54 70.72 70.46 69.99 68.96 66.72 63.47 61.13 59.58
77.28 77.16 78.45 78.82 78.59 78.80 78.87 78.64 77.82 77.45 77.81 77.06 77.05 77.01 76.25 76.31 69.75 67.08 67.98 72.97 73.98 74.79 74.93 74.93 75.46 74.58 73.61 75.40 70.00 69.34 69.36 69.69 71.03 73.33 72.09 71.93 71.33 71.61 69.68 67.42 64.19 63.09 62.03
76.85 77.20 77.78 77.86 77.40 77.92 77.94 77.83 77.97 77.95 77.23 76.49 76.07 76.68 76.31 76.43 68.89 67.54 66.75 72.12 72.72 74.02 75.01 75.67 75.02 74.66 74.82 74.34 75.04 74.48 73.29 73.20 71.33 71.41 72.87 73.88 73.78 73.67 71.58 69.47 66.22 62.09 60.17
76.92 77.13 77.68 78.30 77.52 77.42 77.09 77.28 78.50 77.88 76.94 76.09 75.82 75.92 76.02 75.89 67.46 63.99 66.12 71.27 73.11 73.62 74.34 74.44 74.57 74.78 70.48 66.46 72.95 73.45 72.79 73.61 66.09 65.83 65.62 66.62 67.92 70.06 71.99 65.49 61.20 59.41 56.78
76.92 77.64 77.96 75.84 73.68 76.18 75.89 75.62 76.49 74.67 72.90 73.72 73.72 74.46 71.60 75.36 68.68 63.55 64.26 73.46 73.27 72.54 74.11 74.46 67.12 71.80 66.50 63.40 69.75 72.30 71.34 72.61 70.75 68.12 68.57 68.05 69.62 69.09 66.04 68.42 63.34 61.47 57.14
75.48 75.58 74.96 74.87 74.63 73.68 73.44 73.29 72.60 72.20 71.65 70.87 70.13 71.78 73.22 72.93 73.39 61.09 60.06 72.01 72.54 71.89 72.02 72.50 73.73 64.84 61.56 60.62 61.22 71.92 71.23 71.84 70.83 71.37 71.82 71.27 71.89 71.30 69.76 70.50 66.39 65.14 60.57
73.87 72.69 72.67 72.33 69.86 69.23 69.32 70.07 69.76 69.80 68.64 68.94 70.20 70.35 71.38 72.90 65.86 63.57 59.56 60.24 67.82 70.79 71.44 72.50 71.39 61.62 59.99 58.39 60.06 63.36 61.43 63.20 72.21 71.17 70.45 69.85 69.61 68.46 68.93 68.44 68.05 67.49 66.12
72.13 71.99 71.29 70.16 69.04 68.28 67.72 67.34 67.09 67.70 64.64 63.83 64.11 64.95 66.70 68.74 70.48 61.15 56.92 57.29 59.23 64.56 70.49 65.48 58.55 56.38 55.11 57.10 57.61 60.55 61.09 67.51 68.89 68.68 69.42 69.02 68.94 67.94 64.52 61.97 60.52 59.35 58.91
70.95 70.24 70.19 69.62 68.97 69.23 67.00 66.66 65.52 62.24 60.72 60.72 60.98 61.05 62.97 64.20 67.68 68.51 68.55 66.30 60.13 62.01 63.35 66.37 64.93 62.54 60.00 62.98 62.66 60.99 66.83 68.91 69.02 69.07 70.12 67.42 65.49 63.86 62.10 60.77 58.59 57.49 56.18
69.75 69.20 69.14 67.78 67.78 67.12 66.62 64.16 64.29 60.17 57.25 57.81 57.61 55.42 54.78 56.92 59.59 50.50 51.86 59.09 62.76 61.25 62.33 66.95 65.57 66.68 64.75 64.93 65.29 65.99 66.13 68.07 67.62 67.33 65.20 62.78 61.69 62.03 60.97 60.42 58.91 57.67 55.64
68.52 67.95 67.37 67.45 66.87 67.09 67.78 60.97 49.68 50.55 47.26 45.61 44.64 46.14 52.05 50.38 47.82 45.58 44.85 45.50 46.77 48.95 60.83 63.00 63.30 63.97 63.89 63.65 63.19 63.42 64.70 64.34 63.89 62.96 62.76 61.81 60.20 59.84 59.44 59.34 59.28 58.25 56.42
69.71 68.34 67.43 65.22 67.21 68.11 67.27 65.98 61.00 54.25 46.97 45.11 44.78 46.05 43.98 45.49 44.51 44.54 43.69 44.96 46.95 49.67 60.20 62.19 61.51 61.17 61.17 61.35 61.71 61.71 61.15 62.07 61.27 61.15 60.90 60.30 60.06 60.08 59.03 59.07 59.12 59.28 58.87
67.22 60.90 68.16 67.39 67.83 68.28 66.59 66.41 64.63 63.68 61.80 60.86 54.60 50.40 48.58 46.41 45.14 45.68 46.77 48.02 58.61 56.14 61.08 60.26 59.66 59.16 59.00 58.84 58.47 57.57 57.75 58.27 58.47 58.63 58.63 59.38 59.44 59.15 58.37 58.53 59.03 58.45 58.29
67.43 67.60 66.84 66.69 67.03 65.14 66.01 65.55 64.15 64.94 63.29 61.30 60.78 56.38 54.37 50.03 49.31 49.49 51.48 57.59 56.76 56.42 56.78 57.27 58.01 58.17 57.67 57.10 57.33 57.71 57.97 58.19 58.71 58.67 58.65 58.61 58.77 58.51 57.61 57.41 56.58 54.49 56.10
67.06 64.40 63.15 66.58 66.17 65.48 64.27 64.53 62.89 63.49 63.34 61.84 59.97 59.03 59.17 56.92 58.00 58.55 59.09 58.68 57.50 56.48 56.60 56.76 57.12 57.67 57.31 57.25 57.10 57.37 57.18 57.53 57.87 58.21 58.75 58.55 58.27 58.03 56.90 56.40 55.96 55.78 56.26
67.06 66.57 64.62 65.11 65.55 65.38 64.99 63.79 63.38 63.22 63.51 63.07 59.16 59.76 52.55 59.62 58.61 58.15 58.73 58.74 57.84 57.77 57.48 57.64 57.91 57.69 57.55 57.10 56.90 56.90 56.98 57.24 57.49 58.39 58.99 58.45 58.39 56.78 56.42 56.23 55.20 55.36 56.11
66.02 66.35 65.63 64.60 65.15 64.66 64.78 64.87 64.36 62.63 61.72 62.96 60.63 59.11 46.74 58.54 62.25 61.69 61.44 60.20 60.27 59.51 58.84 58.50 58.79 58.63 58.15 57.72 57.50 57.63 57.77 57.52 57.99 58.27 58.87 58.87 58.08 58.24 58.24 57.74 57.14 56.53 55.90
66.07 65.04 63.67 65.26 65.20 62.23 64.54 64.40 64.61 64.15 62.80 62.04 62.83 62.75 60.52 60.98 63.27 63.11 62.88 63.37 62.17 62.28 63.57 63.22 63.06 62.24 62.83 62.17 61.51 61.09 59.20 58.43 57.77 58.41 58.60 59.33 59.39 58.90 58.12 56.50 56.53 56.04 56.02
66.63 66.10 65.63 65.08 63.09 64.51 63.83 64.06 65.05 57.63 61.41 60.49 61.33 61.16 62.62 62.42 62.57 63.02 63.83 65.13 63.81 63.78 63.90 64.09 63.87 63.52 63.38 63.14 63.43 63.15 62.75 62.11 61.15 60.65 61.53 59.40 58.91 55.76 57.79 56.99 56.58 56.00 55.49
65.18 65.80 64.62 64.12 64.51 64.11 63.08 62.81 62.78 62.65 63.24 63.66 63.45 62.16 61.76 61.78 63.59 64.36 63.52 64.39 64.47 64.94 64.41 64.45 64.18 64.48 64.47 63.94 62.99 62.81 57.21 45.06 58.49 55.45 61.86 61.12 60.00 59.59 58.52 57.20 57.37 56.81 56.38
64.08 64.94 65.24 64.44 64.67 65.21 64.77 64.57 64.03 63.77 63.35 63.62 63.60 63.80 62.69 62.36 62.92 63.53 64.63 65.44 65.52 64.10 64.36 64.99 63.54 63.49 64.53 64.49 64.21 55.91 39.20 40.59 51.27 42.62 60.66 60.92 59.97 58.78 58.56 58.36 58.68 57.35 57.41
MSLP
1010.37 1010.94 1011.43 1011.92 1012.28 1012.55 1012.60 1012.75 1012.88 1013.21 1013.46 1013.61 1013.64 1013.93 1014.00 1014.00 1014.19 1014.45 1014.46 1014.29 1014.06 1014.14 1014.10 1014.29 1014.31 1014.11 1013.88 1013.95 1014.16 1013.44 1013.51 1014.06 1015.31 1015.84 1015.77 1015.91 1017.09 1017.59 1017.57 1017.73 1018.29 1019.01 1019.72
1009.78 1010.22 1010.73 1011.23 1011.63 1011.98 1012.27 1012.46 1012.76 1013.01 1013.29 1013.56 1013.61 1013.69 1013.75 1013.80 1014.09 1014.18 1014.15 1013.94 1013.69 1013.98 1014.12 1014.20 1014.13 1014.06 1013.70 1013.60 1013.70 1013.74 1013.63 1013.47 1014.66 1015.98 1016.84 1015.95 1016.82 1017.64 1017.38 1017.60 1018.19 1019.10 1019.97
1009.27 1009.84 1010.25 1010.72 1011.11 1011.36 1011.51 1011.79 1012.13 1012.42 1012.71 1013.02 1013.25 1013.46 1013.51 1013.48 1013.55 1013.51 1013.66 1013.51 1013.50 1013.68 1013.83 1013.94 1014.01 1013.86 1013.69 1013.75 1013.90 1013.90 1013.66 1013.49 1013.65 1014.96 1015.94 1015.89 1017.04 1017.35 1017.48 1017.87 1018.61 1019.39 1020.04
1008.83 1009.34 1009.77 1010.17 1010.55 1010.83 1011.05 1011.17 1011.51 1011.80 1012.10 1012.36 1012.61 1012.76 1012.92 1013.04 1012.92 1012.88 1012.88 1012.99 1013.08 1013.06 1013.10 1013.30 1013.56 1013.51 1013.60 1013.60 1013.93 1013.99 1013.81 1014.04 1013.84 1014.00 1014.97 1015.69 1016.18 1016.81 1017.22 1017.96 1018.94 1019.55 1020.01
1008.48 1008.82 1009.13 1009.49 1009.87 1010.32 1010.63 1010.72 1010.92 1011.16 1011.41 1011.69 1011.91 1012.01 1012.09 1012.22 1012.25 1012.31 1012.43 1012.51 1012.72 1012.66 1012.63 1012.78 1012.83 1012.90 1012.94 1013.11 1013.53 1013.78 1013.89 1013.93 1014.12 1014.20 1014.55 1015.09 1015.52 1016.36 1016.95 1017.65 1018.54 1019.37 1019.91
1008.12 1008.38 1008.72 1009.02 1009.38 1009.80 1010.13 1010.38 1010.58 1010.69 1010.94 1011.16 1011.27 1011.48 1011.57 1011.53 1011.47 1011.61 1011.90 1012.07 1012.24 1012.38 1012.33 1012.32 1012.52 1012.49 1012.53 1012.74 1012.99 1013.22 1013.53 1013.68 1013.94 1014.23 1014.62 1014.65 1015.07 1015.70 1016.47 1017.21 1018.12 1019.18 1020.00
1007.78 1008.18 1008.51 1008.89 1009.16 1009.46 1009.71 1010.00 1010.29 1010.56 1010.67 1010.75 1010.93 1011.09 1011.12 1011.27 1011.25 1011.36 1011.58 1011.79 1011.62 1011.75 1011.96 1011.95 1012.12 1012.03 1012.02 1012.21 1012.50 1012.79 1013.06 1013.31 1013.47 1013.79 1013.98 1014.02 1014.22 1014.59 1015.66 1016.76 1017.52 1018.18 1018.86
1007.58 1008.00 1008.35 1008.71 1009.04 1009.39 1009.63 1009.79 1010.00 1010.23 1010.56 1010.68 1010.66 1010.69 1010.75 1010.69 1010.80 1010.90 1011.21 1011.41 1011.38 1011.20 1011.26 1011.39 1011.65 1011.77 1011.73 1011.99 1012.14 1012.64 1012.80 1012.87 1013.15 1013.29 1013.38 1013.29 1013.37 1013.63 1014.44 1015.36 1016.69 1018.07 1018.90
1007.58 1008.02 1008.40 1008.72 1009.00 1009.26 1009.39 1009.52 1009.70 1010.03 1010.32 1010.51 1010.49 1010.47 1010.39 1010.23 1010.39 1010.48 1010.87 1011.16 1010.92 1010.71 1010.60 1010.72 1011.07 1011.24 1011.25 1011.41 1011.94 1012.17 1012.17 1012.19 1012.80 1012.86 1012.95 1012.80 1012.84 1012.70 1013.63 1015.35 1016.63 1017.54 1018.86
1007.39 1007.86 1008.23 1008.77 1009.11 1009.32 1009.43 1009.68 1009.78 1010.13 1010.30 1010.32 1010.21 1010.22 1010.03 1009.92 1009.96 1010.12 1010.35 1010.48 1010.42 1010.26 1009.92 1010.06 1010.24 1010.41 1010.71 1010.97 1011.46 1011.63 1011.82 1011.86 1012.42 1013.14 1013.22 1013.24 1012.76 1013.16 1013.40 1013.74 1015.13 1016.18 1017.55
1007.38 1007.89 1008.36 1008.85 1009.29 1009.65 1009.96 1010.19 1010.30 1010.30 1010.31 1010.38 1010.31 1010.12 1009.82 1009.63 1009.59 1009.65 1009.76 1009.99 1009.88 1009.92 1009.65 1009.49 1009.57 1009.70 1009.94 1010.39 1010.76 1011.07 1011.06 1011.28 1011.66 1012.16 1012.40 1012.56 1012.66 1013.13 1013.61 1013.50 1014.11 1014.59 1015.91
1007.80 1008.34 1008.93 1009.39 1009.88 1010.18 1010.51 1010.61 1010.70 1010.72 1010.73 1010.56 1010.19 1009.81 1009.31 1009.14 1009.09 1009.07 1009.16 1009.43 1009.44 1009.64 1009.44 1009.12 1009.29 1008.90 1009.24 1009.71 1010.33 1010.42 1010.73 1010.92 1011.09 1011.69 1012.01 1012.14 1012.22 1012.92 1013.40 1013.62 1013.58 1013.98 1014.54
1008.11 1008.64 1009.21 1009.74 1010.14 1010.54 1010.60 1010.74 1010.78 1010.92 1011.24 1011.32 1011.08 1010.63 1009.97 1009.31 1009.12 1009.13 1009.24 1009.21 1009.13 1009.51 1009.25 1009.28 1009.61 1009.64 1009.58 1009.61 1009.75 1010.00 1010.40 1010.66 1010.86 1011.27 1011.42 1011.67 1011.89 1012.23 1013.27 1013.97 1014.46 1014.70 1015.19
1008.23 1008.79 1009.25 1009.68 1010.04 1010.16 1010.27 1010.62 1010.92 1011.60 1011.88 1011.82 1011.53 1011.31 1010.90 1010.48 1009.84 1009.61 1009.54 1009.45 1009.45 1009.51 1009.34 1009.13 1009.14 1009.41 1009.63 1009.66 1009.87 1010.21 1010.12 1010.08 1010.29 1010.51 1010.71 1011.45 1012.06 1012.57 1013.16 1013.73 1014.51 1015.01 1015.60
1008.20 1008.60 1009.05 1009.52 1009.81 1010.08 1010.39 1010.96 1011.38 1012.17 1012.43 1012.65 1012.53 1012.46 1012.03 1011.25 1010.86 1011.04 1010.81 1010.20 1009.61 1009.43 1009.27 1009.00 1009.18 1009.25 1009.42 1009.57 1009.66 1009.77 1009.94 1009.92 1010.22 1010.23 1010.37 1011.17 1011.94 1012.40 1012.91 1013.54 1013.98 1014.62 1015.07
1008.06 1008.37 1008.60 1008.74 1009.26 1009.40 1009.89 1011.42 1012.00 1012.11 1012.30 1012.50 1012.71 1012.84 1012.29 1011.82 1011.27 1010.75 1010.31 1009.96 1009.77 1009.66 1009.45 1009.10 1009.02 1009.06 1009.11 1009.25 1009.47 1009.67 1009.79 1009.94 1010.10 1010.35 1010.45 1010.81 1011.44 1012.15 1012.52 1013.05 1013.65 1013.88 1014.40
1007.72 1007.91 1008.19 1008.61 1008.88 1009.17 1009.50 1010.01 1011.26 1012.19 1012.17 1012.11 1012.21 1012.16 1012.03 1011.61 1010.93 1010.42 1010.03 1009.74 1009.53 1009.57 1009.34 1008.99 1008.95 1008.97 1008.99 1009.12 1009.29 1009.47 1009.74 1009.90 1010.12 1010.42 1010.63 1010.95 1011.24 1011.68 1012.18 1012.74 1013.60 1014.11 1014.30
1007.81 1007.91 1008.11 1008.47 1008.69 1008.99 1009.27 1009.37 1009.97 1010.49 1010.98 1011.50 1011.85 1011.94 1011.59 1011.03 1010.69 1010.21 1009.70 1009.53 1009.50 1009.37 1009.10 1009.02 1009.07 1009.15 1009.22 1009.33 1009.47 1009.63 1009.84 1010.11 1010.25 1010.48 1010.78 1010.94 1010.99 1011.36 1011.91 1012.49 1013.19 1013.77 1014.68
1007.57 1007.93 1008.14 1008.33 1008.48 1008.51 1008.65 1008.98 1009.28 1009.69 1010.23 1010.84 1011.21 1011.42 1011.41 1010.82 1010.68 1010.41 1010.00 1009.86 1009.69 1009.64 1009.54 1009.39 1009.42 1009.50 1009.55 1009.66 1009.79 1009.93 1010.06 1010.29 1010.46 1010.64 1011.00 1011.22 1011.57 1012.07 1012.10 1013.17 1014.00 1014.52 1014.89
1007.55 1007.95 1008.32 1008.20 1007.89 1008.16 1008.16 1008.06 1008.67 1009.13 1009.61 1009.97 1010.36 1010.90 1010.94 1010.76 1010.53 1010.11 1010.24 1010.21 1010.16 1010.04 1009.91 1009.84 1009.86 1009.83 1009.91 1010.07 1010.26 1010.45 1010.54 1010.67 1010.99 1011.16 1011.38 1011.73 1012.09 1012.60 1013.16 1013.68 1014.30 1014.77 1015.12
1007.08 1007.56 1007.93 1007.85 1007.53 1007.70 1007.49 1007.31 1007.92 1008.06 1008.19 1008.83 1009.87 1010.42 1010.49 1010.73 1010.26 1009.95 1009.77 1009.98 1010.21 1009.99 1010.05 1010.21 1010.35 1010.36 1010.42 1010.57 1010.74 1010.94 1011.01 1011.20 1011.43 1011.72 1011.88 1012.49 1012.85 1013.21 1013.55 1013.84 1014.06 1014.38 1014.49
1006.40 1006.72 1007.12 1007.24 1007.06 1007.32 1007.30 1007.37 1007.14 1007.00 1007.12 1007.86 1009.07 1009.71 1010.05 1009.94 1009.54 1009.35 1009.40 1009.41 1009.62 1010.17 1010.00 1010.24 1010.50 1010.58 1010.59 1010.61 1010.87 1011.03 1011.33 1011.64 1011.89 1012.10 1012.35 1012.57 1012.84 1013.02 1013.02 1013.15 1013.36 1013.73 1014.00
1005.71 1005.96 1006.45 1006.42 1006.73 1006.99 1006.88 1006.82 1006.70 1006.74 1006.68 1006.99 1007.74 1008.47 1008.91 1008.84 1008.40 1008.13 1008.18 1008.56 1008.88 1009.24 1009.45 1009.47 1009.76 1010.00 1010.13 1010.34 1010.70 1010.88 1011.12 1011.37 1011.92 1011.95 1012.10 1012.34 1012.31 1012.27 1012.30 1012.73 1013.14 1013.40 1013.84
1005.02 1005.31 1005.67 1005.81 1006.24 1006.28 1006.11 1006.36 1006.46 1006.58 1006.60 1006.83 1006.87 1007.17 1007.50 1007.73 1007.65 1007.65 1007.67 1007.74 1007.95 1008.25 1008.40 1008.45 1008.84 1009.14 1009.49 1009.63 1009.82 1010.05 1010.45 1010.58 1011.09 1011.33 1011.26 1011.61 1011.85 1012.10 1012.06 1012.21 1012.69 1013.05 1013.34
1004.50 1004.26 1004.80 1004.64 1005.18 1005.31 1005.50 1005.70 1005.46 1005.84 1006.14 1006.31 1006.38 1006.67 1006.93 1007.00 1006.98 1006.99 1007.23 1007.26 1007.48 1007.71 1007.81 1007.99 1008.12 1008.24 1008.54 1008.96 1009.14 1009.37 1009.64 1010.19 1010.46 1010.69 1010.95 1011.30 1011.61 1011.76 1011.96 1012.08 1012.29 1012.55 1012.81
1004.30 1003.97 1003.67 1003.68 1003.93 1004.28 1004.60 1004.63 1004.61 1004.82 1005.15 1005.42 1005.59 1005.73 1006.00 1006.17 1006.31 1006.40 1006.49 1006.65 1006.81 1007.13 1007.32 1007.50 1007.66 1007.63 1007.79 1008.08 1008.37 1008.55 1009.10 1009.55 1009.97 1010.19 1010.19 1010.64 1010.99 1011.23 1011.28 1011.42 1011.46 1011.79 1011.89
Wind_Speed
11 14 12 12 12 10 9 7 5 4 3 4 3 5 6 5 4 5 6 8 4 5 5 3 5 6 5 2 7 5 3 3 5 2 7 9 7 9 9 10 9 8 7
11 9 12 10 10 11 11 10 7 7 6 6 5 6 6 6 7 7 6 8 5 5 6 6 5 6 6 4 3 5 2 3 5 4 5 9 9 7 10 10 8 7 6
10 11 11 11 11 11 11 11 10 8 10 9 8 9 9 9 9 9 9 9 8 6 8 7 7 6 5 3 5 6 4 2 3 5 4 3 8 7 8 8 8 8 6
11 12 11 11 11 11 10 8 11 9 8 9 8 8 10 9 9 8 8 8 9 7 8 8 9 7 8 5 4 5 5 2 4 3 4 5 4 6 6 8 5 5 6
6 8 9 10 9 9 7 7 8 9 9 8 8 10 9 9 9 9 8 7 6 7 7 7 8 10 11 10 5 5 6 4 4 6 4 3 5 5 7 5 4 5 3
10 8 6 7 9 10 9 8 6 7 8 8 10 10 10 9 12 13 10 9 9 7 8 7 8 7 7 9 9 6 2 5 5 3 2 4 7 6 6 7 8 5 4
7 7 6 7 6 6 6 6 7 8 8 8 9 9 11 11 12 12 9 8 9 9 7 6 7 9 9 9 9 7 7 7 7 3 5 5 5 9 9 10 8 6 5
9 8 7 7 7 7 7 7 7 7 8 8 10 10 10 10 12 13 10 8 9 11 8 6 7 9 10 7 7 8 8 7 7 8 7 6 6 9 13 9 9 6 8
8 7 6 6 7 7 8 7 3 2 4 6 7 9 10 10 10 9 6 7 9 12 11 10 9 7 11 9 8 8 11 7 2 4 4 4 0 11 13 10 7 9 3
9 7 5 5 4 3 4 5 2 3 5 5 7 8 10 8 9 10 10 7 8 8 10 11 13 13 12 10 7 9 11 9 6 5 3 4 3 6 23 14 13 10 5
10 8 6 4 2 3 3 4 4 5 5 7 8 9 11 9 9 10 12 7 7 7 9 7 9 15 15 13 11 7 9 9 8 7 6 6 6 8 8 8 12 11 8
7 6 5 4 2 5 4 3 5 4 6 7 7 8 7 8 10 12 15 15 10 7 9 7 6 11 14 12 8 11 2 3 4 5 6 6 6 4 4 2 7 4 5
7 6 6 4 3 3 2 2 2 4 5 6 6 7 8 7 7 6 5 8 12 6 6 2 5 6 8 5 9 10 9 4 4 6 9 8 7 8 8 6 6 9 7
7 7 5 5 5 3 5 4 5 6 6 7 7 6 6 7 7 5 5 3 7 5 6 7 6 2 2 2 2 4 4 5 6 9 10 3 6 6 5 4 4 6 6
7 7 7 6 5 6 4 4 4 4 2 4 6 6 7 7 3 5 5 5 4 4 5 3 3 4 3 3 3 3 4 5 7 5 6 7 5 5 4 5 7 7 6
7 5 5 6 5 3 4 5 7 6 7 7 8 7 6 10 11 12 10 8 8 5 2 2 3 5 6 5 5 4 4 5 3 3 5 7 8 7 7 7 5 7 11
5 4 5 1 3 2 1 0 5 5 8 7 8 8 11 13 11 10 9 8 6 3 3 3 3 3 3 3 2 3 2 2 3 3 5 7 8 8 12 9 7 6 6
4 6 2 3 3 2 2 3 4 2 3 4 5 6 9 7 9 8 7 1 1 1 1 1 0 1 1 2 3 3 3 4 3 4 4 3 3 8 8 6 8 9 7
4 3 3 1 3 2 4 5 5 3 3 4 3 4 8 10 8 8 9 4 3 4 3 3 3 2 3 3 3 3 5 5 6 7 7 8 8 8 8 7 6 7 8
4 5 2 4 4 4 4 3 5 4 4 3 4 3 1 3 3 4 4 4 3 3 4 4 4 4 4 4 4 4 6 6 6 6 7 7 7 7 7 8 7 7 6
7 8 8 6 4 5 6 2 5 6 5 5 5 5 6 2 2 1 2 3 1 3 3 4 4 5 5 5 5 5 6 6 6 5 6 6 6 6 6 8 9 9 8
9 10 8 9 5 3 1 5 4 4 2 8 7 7 9 6 6 5 3 3 4 3 4 4 4 4 4 5 5 6 6 5 6 5 5 7 8 8 8 6 4 5 4
6 6 3 5 6 5 4 4 3 6 1 1 8 8 7 6 4 4 5 6 7 7 7 7 6 6 7 7 7 5 6 7 5 5 6 6 6 4 4 4 4 4 4
9 12 11 7 7 8 5 4 4 1 2 3 2 3 2 3 4 3 1 2 4 5 6 5 7 9 7 6 5 6 7 6 8 8 6 4 4 4 3 3 5 6 5
10 6 11 8 9 8 6 6 5 4 4 3 3 4 3 3 3 2 6 6 4 3 4 5 4 5 11 12 11 12 12 15 11 9 6 7 6 7 6 6 6 7 9
9 10 8 6 8 8 7 6 5 5 6 7 7 6 7 7 7 6 5 3 4 7 6 4 6 8 9 9 9 6 10 18 14 13 9 8 8 8 7 9 11 8 9
Wind_Direction
202 185 197 195 201 213 236 250 233 255 274 302 240 225 209 226 249 224 241 280 272 248 277 270 257 289 287 131 260 327 165 145 167 47 60 106 109 126 116 119 125 106 89
195 195 193 198 211 199 216 228 230 224 227 219 234 258 241 218 219 229 233 257 256 244 261 275 238 252 271 294 290 282 138 121 123 130 151 208 136 149 136 130 109 98 96
191 194 196 199 206 220 213 214 222 220 213 223 217 221 244 227 237 218 217 241 254 226 233 232 250 255 260 266 308 315 351 264 157 135 178 130 144 156 107 107 111 114 111
187 191 199 196 205 211 225 214 213 222 230 222 222 232 225 249 252 239 234 226 239 247 242 222 235 227 240 215 248 267 291 287 287 115 142 154 150 128 123 129 127 138 152
202 192 196 195 198 206 220 217 215 212 220 228 225 233 238 234 240 240 243 242 256 240 249 243 246 222 220 216 204 222 242 239 258 244 166 141 156 149 163 149 127 140 80
197 208 198 188 193 205 210 222 233 224 219 226 227 234 240 242 240 231 226 227 233 244 239 247 257 270 187 180 202 197 231 218 241 262 227 181 183 167 165 164 143 143 156
194 202 202 206 211 213 216 221 226 237 243 240 241 242 242 243 254 259 236 247 233 231 234 235 254 256 211 196 202 208 216 219 218 259 216 206 192 179 165 169 169 163 152
193 199 199 192 203 215 217 221 227 233 241 246 252 251 252 249 238 252 219 227 238 241 229 232 227 241 261 245 210 213 223 224 218 223 225 231 206 185 171 173 157 108 97
186 196 199 193 204 210 213 218 229 293 276 269 266 263 259 258 242 248 191 229 236 243 238 229 229 238 244 229 232 235 244 226 100 81 25 99 213 187 144 127 144 144 127
184 182 132 76 27 359 19 12 17 351 322 307 294 281 271 267 250 230 200 227 233 247 240 231 226 226 228 220 211 226 241 235 164 194 190 243 187 130 152 166 160 167 132
103 97 84 96 80 9 2 356 327 307 292 283 276 276 279 261 264 210 204 233 228 247 251 234 231 219 221 219 203 229 225 245 228 181 201 199 183 151 181 176 175 171 162
91 107 107 96 36 45 28 359 346 318 301 296 291 291 276 274 253 225 213 215 232 242 254 268 315 224 211 214 204 224 216 230 221 220 211 190 152 141 141 100 154 138 175
132 123 121 120 122 134 118 62 321 13 356 331 318 303 302 310 310 11 269 251 235 243 264 44 10 345 267 207 214 200 177 180 194 228 228 203 186 151 121 96 73 82 74
130 139 141 143 129 91 73 38 52 32 351 332 319 311 315 316 307 352 336 238 240 260 260 266 273 268 213 262 158 212 221 196 217 226 222 137 129 150 155 143 132 129 111
152 144 150 142 187 143 133 62 82 74 54 350 337 328 309 298 320 326 299 312 331 336 301 236 205 205 188 199 236 208 224 222 215 207 159 158 157 166 167 160 152 149 140
150 170 182 174 185 124 114 130 46 97 174 188 245 233 299 279 301 305 293 283 284 292 262 230 229 227 225 205 200 212 207 207 187 181 175 169 163 162 159 148 157 153 145
222 134 155 210 100 131 122 58 162 207 233 220 241 270 236 259 295 309 300 278 274 191 228 223 219 211 203 196 199 192 203 186 134 177 176 171 161 154 148 145 136 128 132
141 88 158 146 147 132 199 243 137 112 61 70 54 345 312 342 343 345 341 333 11 276 251 61 64 152 166 160 144 133 131 118 110 108 97 94 126 143 130 130 134 128 130
214 179 192 161 251 231 235 221 167 162 122 107 91 40 343 347 353 14 25 39 44 35 24 39 44 65 82 93 109 121 127 130 133 126 124 121 117 107 96 92 80 108 120
153 104 264 250 219 226 241 228 148 178 166 143 120 171 216 327 347 32 23 36 53 56 49 43 54 64 80 77 71 92 110 108 109 108 105 104 102 113 120 127 134 144 168
195 170 211 240 228 253 232 219 155 225 178 186 152 210 193 217 225 101 131 102 73 92 92 91 84 93 85 87 83 91 89 90 90 99 100 110 122 130 149 173 175 189 200
171 183 184 213 206 120 69 322 250 238 266 162 169 198 202 239 211 181 217 173 148 192 144 125 133 122 124 119 133 133 130 132 142 140 143 159 172 191 193 191 174 163 154
227 141 239 230 161 173 204 267 292 297 350 194 172 173 202 234 221 169 161 180 180 188 181 164 169 163 161 168 174 175 163 163 178 183 193 208 202 209 165 148 154 158 178
267 181 193 216 162 198 175 231 241 260 22 301 338 353 94 217 192 194 202 132 166 183 186 163 173 179 168 184 187 176 188 178 178 202 205 194 198 189 176 158 168 185 199
259 251 189 202 173 214 188 225 196 178 200 254 234 177 210 225 283 234 183 200 171 193 187 180 184 194 175 188 183 196 188 180 190 195 196 206 215 205 213 202 208 198 207
227 248 245 220 182 205 181 220 200 192 194 198 205 195 195 192 203 209 209 221 191 184 189 186 205 218 194 193 211 229 173 185 194 201 193 202 210 221 216 218 216 222 223